Location: Caltech
(34.1382°N, 118.1253°W)
Time: 11:59:32
(UTC-07:00)

Cosmos 1758 Rocket - Visible Passes

Search period start: 24 June 2017 00:00
Search period end: 04 July 2017 00:00
Orbit: 603 x 635 km, 82.5° (Epoch: 23 June)

Date Brightness Start Highest point End Pass type
(mag) Time Alt. Az. Time Alt. Az. Time Alt. Az.
25 Jun 6.4 20:40:33 10° SW 20:43:58 21° WNW 20:47:26 10° NNW visible
26 Jun 7.1 21:00:19 10° W 21:01:39 11° WNW 21:03:00 10° NW visible
01 Jul 7.3 05:07:11 10° ENE 05:07:34 10° ENE 05:07:56 10° ENE visible
